Flag for Germany Weather past 2 weeks in Jena, Thuringia, Germany

Now
52 °F

Passing clouds.


Feels Like: 49 °F
Forecast: 44 / 57 °F
Wind: 7 mph from Northwest

Location: Erfurt-Bindersleben

Current Time: May 25, 2015 at 10:49:29 PM

Latest Report: May 25, 2015 at 10:20 PM


Visibility: N/A

Pressure: 29.95 "Hg

Humidity: 82%

Dew point: 46 °F

Location of JenaLocation

Historic Weather in Jena — Graph

°F

Jena temperature yesterday

Maximum temperature yesterday: 66 °F (at 4:20 PM)
Minimum temperature yesterday: 52 °F (at 3:20 AM)
Average temperature yesterday: 58 °F

Past Weeks' High & Low Weather Summary

 TemperatureHumidityPressure
High81 °F (May 12, 2:50 PM)100% (May 21, 6:20 AM)30.36 "Hg (May 21, 6:20 AM)
Low36 °F (May 22, 2:20 AM)27% (May 19, 2:50 PM)29.65 "Hg (May 19, 1:20 AM)
Average55 °F61%30.06 "Hg
* Reported May 10 9:20 PM — May 25 9:50 PM, Jena, Weather by CustomWeather, © 2015

Note: Actual official high and low records may vary slightly from our data, if they occured in-between our weather recording intervals... More about our weather records

Advertising

Jena weather history for previous 24 hours

 ConditionsComfort  
Time TempWeatherWind HumidityBarometerVisibility
9:50 PM
Mon, May 25
54 °FPartly sunny.7 mph77%29.95 "HgN/A
9:20 PM54 °FPartly sunny.9 mph82%29.92 "HgN/A
8:50 PM54 °FPartly sunny.8 mph82%29.92 "HgN/A
8:20 PM54 °FBroken clouds.8 mph88%29.92 "HgN/A
7:50 PM54 °FBroken clouds.8 mph88%29.92 "HgN/A
7:20 PM55 °FLight rain. Mostly cloudy.10 mph82%29.92 "HgN/A
6:50 PM57 °FLight rain. Mostly cloudy.8 mph77%29.89 "HgN/A
6:20 PM59 °FMore clouds than sun.10 mph72%29.89 "HgN/A
5:50 PM61 °FOvercast.5 mph63%29.89 "HgN/A
5:20 PM61 °FBroken clouds.1 mph63%29.89 "HgN/A
4:50 PM59 °FLight rain. Broken clouds.3 mph68%29.92 "HgN/A
4:20 PM59 °FLight rain. Broken clouds.7 mph68%29.92 "HgN/A
3:50 PM59 °FLight rain. Broken clouds.8 mph68%29.92 "HgN/A
3:20 PM59 °FLight rain. Partly sunny.10 mph68%29.92 "HgN/A
2:50 PM63 °FBroken clouds.6 mph52%29.92 "HgN/A
2:20 PM61 °FBroken clouds.6 mph55%29.92 "HgN/A
1:50 PM63 °FBroken clouds.6 mph49%29.92 "HgN/A
1:20 PM61 °FBroken clouds.6 mph52%29.92 "HgN/A
12:50 PM61 °FPartly sunny.6 mph48%29.92 "HgN/A
12:20 PM63 °FBroken clouds.7 mph49%29.95 "HgN/A
11:50 AM61 °FBroken clouds.2 mph63%29.95 "HgN/A
11:20 AM61 °FBroken clouds.5 mph59%29.95 "HgN/A
10:50 AM61 °FBroken clouds.5 mph63%29.95 "HgN/A
10:20 AM61 °FBroken clouds.2 mph68%29.95 "HgN/A
9:50 AM61 °FBroken clouds.3 mph63%29.98 "HgN/A
9:20 AM59 °FBroken clouds.5 mph63%29.98 "HgN/A
8:50 AM59 °FPartly sunny.6 mph68%29.98 "HgN/A
8:20 AM57 °FBroken clouds.6 mph82%29.98 "HgN/A
7:50 AM55 °FBroken clouds.7 mph88%29.98 "HgN/A
7:20 AM55 °FLight rain. Broken clouds.6 mph82%29.98 "HgN/A
6:50 AM54 °FLight rain. Broken clouds.5 mph88%29.98 "HgN/A
6:20 AM54 °FLight rain. Broken clouds.6 mph88%29.98 "HgN/A
5:50 AM54 °FLight rain. Partly cloudy.7 mph88%29.98 "HgN/A
5:20 AM55 °FLight rain. Partly cloudy.6 mph82%29.98 "HgN/A
4:50 AM54 °FClear.6 mph88%29.98 "Hg10 mi
4:20 AM54 °FPassing clouds.6 mph82%29.98 "HgN/A
3:50 AM54 °FClear.3 mph82%29.98 "Hg10 mi
3:20 AM54 °FPartly cloudy.3 mph82%29.98 "HgN/A
2:50 AM54 °FClear.5 mph82%29.98 "Hg10 mi
2:20 AM54 °FPassing clouds.3 mph82%29.98 "HgN/A
1:50 AM55 °FPassing clouds.5 mph77%30.01 "HgN/A
1:20 AM55 °FPartly cloudy.5 mph82%30.01 "HgN/A
12:50 AM55 °FClear.3 mph82%30.01 "Hg10 mi
12:20 AM55 °FClear.3 mph82%30.01 "Hg10 mi
11:20 PM
Sun, May 24
57 °FClear.5 mph77%30.04 "Hg10 mi
10:50 PM59 °FClear.5 mph72%30.04 "Hg10 mi
10:20 PM59 °FClear.5 mph72%30.04 "Hg10 mi
Weather by CustomWeather, © 2015

See weather overviewHow to use our weather pages